Weather History for KTOI - February, 2013

Change the Weather History Date:

Thursday, February 7, 2013

  Actual Average Record
Temperature  
Mean Temperature 60 °F 48 °F  
Max Temperature 68 °F 60 °F 70 °F (2001)
Min Temperature 51 °F 36 °F 26 °F (2000)
Degree Days  
Heating Degree Days 5 17  
Month to date heating degree days 102 120  
Since 1 July heating degree days 1299 1612  
Growing Degree Days 10 (Base 50)    
Moisture  
Dew Point 54 °F    
Average Humidity 82    
Maximum Humidity 100    
Minimum Humidity 63    
Precipitation  
Precipitation 1.29 in 0.16 in 1.29 in (2013)
Month to date precipitation 1.37 1.08  
Year to date precipitation 4.51 5.63  
Snow  
Snow 0.00 in - - ()
Month to date snowfall 0.0  
Since 1 July snowfall 0.0  
Snow Depth 0.00 in    
Sea Level Pressure  
Sea Level Pressure 29.95 in    
Wind  
Wind Speed 6 mph (NE)    
Max Wind Speed 17 mph    
Max Gust Speed 22 mph    
Visibility 4 miles    
Events Fog , Rain    
T = Trace of Precipitation, MM = Missing Value Source: NWS Daily Summary

Daily Weather History Graph

Daily Weather History Graph

Search for Another Location

Airport or City:

Trip Planner

Search our weather history database for the weather conditions in past years. The results will help you decide how hot, cold, wet, or windy it might be!

Date:

Astronomy

Feb. 07, 2013 Rise Set
Actual Time 6:32 AM CST 5:23 PM CST
Civil Twilight 6:07 AM CST 5:49 PM CST
Nautical Twilight 5:38 AM CST 6:18 PM CST
Astronomical Twilight 5:10 AM CST 6:46 PM CST
Moon 4:06 AM CST (2/7) 2:52 PM CST (2/7)
Length of Visible Light 11h 41m
Length of Day
10h 51m
Waning Crescent, 9% of the Moon is Illuminated
Feb 7
Waning Crescent
Feb 10
New
Feb 17
First Quarter
Feb 25
Full
Mar 4
Last Quarter

Hourly Weather History & Observations

Time (CST) Temp. Dew Point Humidity Pressure Visibility Wind Dir Wind Speed Gust Speed Precip Events Conditions
12:53 AM 51.1 °F 48.9 °F 92% 30.08 in 5.0 mi ESE 3.5 mph - N/A   Clear
1:53 AM 55.0 °F 51.1 °F 86% 30.06 in 6.0 mi Calm Calm - N/A   Overcast
2:53 AM 54.0 °F 52.0 °F 93% 30.05 in 5.0 mi Calm Calm - N/A   Overcast
3:53 AM 54.0 °F 52.0 °F 93% 30.02 in 4.0 mi NE 6.9 mph - 0.01 in Rain Light Rain
4:53 AM 55.0 °F 53.1 °F 93% 30.01 in 3.0 mi ENE 3.5 mph - 0.02 in Rain Light Rain
5:21 AM 55.4 °F 53.6 °F 94% 30.02 in 3.0 mi ENE 3.5 mph - 0.02 in Rain Light Rain
5:41 AM 55.4 °F 53.6 °F 94% 30.01 in 2.5 mi Calm Calm - 0.03 in Rain Light Rain
5:53 AM 55.0 °F 53.1 °F 93% 30.00 in 2.5 mi ENE 5.8 mph - 0.03 in Rain Light Rain
6:16 AM 55.4 °F 53.6 °F 94% 29.99 in 1.8 mi ENE 4.6 mph - 0.04 in Rain Rain
6:21 AM 55.4 °F 53.6 °F 94% 29.99 in 2.0 mi ENE 3.5 mph - 0.04 in Rain Light Rain
6:25 AM 55.4 °F 53.6 °F 94% 29.99 in 2.5 mi East 3.5 mph - 0.04 in Rain Light Rain
6:38 AM 55.4 °F 53.6 °F 94% 29.99 in 3.0 mi ENE 4.6 mph - 0.04 in Rain Light Rain
6:44 AM 55.4 °F 53.6 °F 94% 29.99 in 2.5 mi NE 4.6 mph - 0.05 in Rain Light Rain
6:51 AM 55.4 °F 53.6 °F 94% 29.99 in 2.5 mi NE 5.8 mph - 0.05 in Rain Light Rain
6:53 AM 55.9 °F 54.0 °F 93% 29.99 in 2.5 mi NE 4.6 mph - 0.06 in Rain Light Rain
7:15 AM 55.4 °F 53.6 °F 94% 29.98 in 1.5 mi ENE 6.9 mph - 0.00 in Rain Light Rain
7:32 AM 55.4 °F 53.6 °F 94% 29.98 in 1.0 mi ENE 6.9 mph - 0.03 in Rain Rain
7:38 AM 55.4 °F 53.6 °F 94% 29.98 in 0.8 mi ENE 5.8 mph - 0.04 in Rain Rain
7:45 AM 55.4 °F 53.6 °F 94% 29.97 in 1.0 mi ENE 8.1 mph - 0.05 in Rain Light Rain
7:53 AM 55.9 °F 54.0 °F 93% 29.96 in 1.0 mi ENE 6.9 mph - 0.07 in Rain Rain
8:06 AM 55.4 °F 53.6 °F 94% 29.97 in 1.2 mi NE 6.9 mph - 0.00 in Rain Light Rain
8:17 AM 55.4 °F 53.6 °F 94% 29.97 in 1.5 mi NE 8.1 mph - 0.01 in Rain Light Rain
8:36 AM 55.4 °F 53.6 °F 94% 29.97 in 1.2 mi NNE 6.9 mph - 0.03 in Rain Rain
8:43 AM 55.4 °F 53.6 °F 94% 29.98 in 1.0 mi NE 4.6 mph - 0.05 in Rain Rain
8:53 AM 55.9 °F 55.0 °F 97% 29.98 in 1.0 mi NE 4.6 mph - 0.09 in Rain Rain
9:13 AM 55.4 °F 55.4 °F 100% 29.98 in 0.8 mi ENE 5.8 mph - 0.09 in Rain Heavy Rain
9:30 AM 55.4 °F 55.4 °F 100% 29.96 in 0.8 mi ENE 8.1 mph - 0.18 in Rain Heavy Rain
9:53 AM 55.9 °F 55.0 °F 97% 29.98 in 1.0 mi Variable 3.5 mph - 0.32 in Rain Rain
10:21 AM 57.2 °F 55.4 °F 94% 30.00 in 0.8 mi North 3.5 mph - 0.15 in Rain Heavy Rain
10:29 AM 57.2 °F 55.4 °F 94% 30.00 in 0.5 mi North 5.8 mph - 0.23 in Fog , Rain Heavy Rain
10:53 AM 57.0 °F 55.9 °F 96% 29.96 in 0.5 mi East 6.9 mph - 0.49 in Fog , Rain Heavy Rain
11:07 AM 57.2 °F 55.4 °F 94% 29.90 in 0.8 mi ENE 13.8 mph - 0.10 in Rain Heavy Rain
11:14 AM 57.2 °F 55.4 °F 94% 29.88 in 1.0 mi NE 12.7 mph 21.9 mph 0.13 in Rain Heavy Rain
11:18 AM 57.2 °F 55.4 °F 94% 29.91 in 1.2 mi North 8.1 mph 21.9 mph 0.13 in Rain Rain
11:28 AM 57.2 °F 55.4 °F 94% 29.93 in 1.5 mi North 9.2 mph - 0.17 in Rain Rain
11:32 AM 57.2 °F 55.4 °F 94% 29.93 in 2.0 mi North 6.9 mph - 0.17 in Rain Light Rain
11:41 AM 57.2 °F 55.4 °F 94% 29.92 in 6.0 mi NNE 3.5 mph - 0.17 in Rain Light Rain
11:53 AM 57.9 °F 55.9 °F 93% 29.91 in 7.0 mi Calm Calm - 0.17 in   Overcast
12:02 PM 57.2 °F 55.4 °F 94% 29.91 in 3.0 mi North 4.6 mph - 0.01 in Rain Rain
12:09 PM 57.2 °F 55.4 °F 94% 29.90 in 2.0 mi NE 4.6 mph - 0.01 in Rain Light Rain
12:20 PM 57.2 °F 55.4 °F 94% 29.90 in 5.0 mi NNE 5.8 mph - 0.01 in Rain Light Rain
12:53 PM 57.9 °F 55.9 °F 93% 29.83 in 3.0 mi East 10.4 mph - 0.03 in Rain Light Rain
1:01 PM 57.2 °F 55.4 °F 94% 29.83 in 6.0 mi East 8.1 mph 17.3 mph 0.00 in Rain Light Rain
1:53 PM 64.0 °F 57.0 °F 78% 29.81 in 10.0 mi ESE 8.1 mph - 0.00 in   Mostly Cloudy
2:53 PM 68.0 °F 55.9 °F 65% 29.83 in 10.0 mi North 9.2 mph - N/A   Clear
3:43 PM 62.6 °F 55.4 °F 77% 29.86 in 10.0 mi NNW 13.8 mph - N/A   Mostly Cloudy
3:53 PM 62.1 °F 55.9 °F 80% 29.86 in 10.0 mi NNW 16.1 mph - N/A   Mostly Cloudy
4:14 PM 60.8 °F 55.4 °F 82% 29.88 in 10.0 mi NNW 12.7 mph - N/A   Overcast
4:51 PM 60.8 °F 55.4 °F 82% 29.89 in 10.0 mi North 13.8 mph - N/A   Overcast
4:53 PM 59.0 °F 55.0 °F 87% 29.88 in 10.0 mi North 12.7 mph - N/A   Overcast
5:07 PM 57.2 °F 53.6 °F 88% 29.89 in 8.0 mi North 11.5 mph - N/A   Overcast
5:24 PM 57.2 °F 53.6 °F 88% 29.90 in 7.0 mi North 10.4 mph - N/A   Overcast
5:53 PM 55.9 °F 53.1 °F 90% 29.90 in 10.0 mi NNE 10.4 mph - N/A   Overcast
6:53 PM 55.9 °F 52.0 °F 87% 29.91 in 10.0 mi NNE 5.8 mph - N/A   Overcast
7:53 PM 55.0 °F 51.1 °F 86% 29.94 in 9.0 mi NNE 3.5 mph - N/A   Overcast
8:53 PM 54.0 °F 51.1 °F 90% 29.94 in 9.0 mi Calm Calm - N/A   Overcast
9:53 PM 54.0 °F 51.1 °F 90% 29.94 in 7.0 mi Calm Calm - N/A   Overcast
10:53 PM 54.0 °F 51.1 °F 90% 29.96 in 8.0 mi North 3.5 mph - N/A   Overcast
11:53 PM 53.1 °F 51.1 °F 93% 29.95 in 7.0 mi North 5.8 mph - N/A   Overcast